Regional Weather Roundup
Issued by NWS

Home | Current Version | Previous Version | Graphics & Text | Print | Product List | Glossary On
Versions: 1 2 3 4 5 6 7 8 9 10 11 12 13 14 15 16 17 18 19 20 21 22 23 24 25 26 27 28 29 30 31 32 33 34 35 36 37 38 39 40 41 42 43 44 45 46 47 48 49 50
000
ASUS43 KOAX 221302
RWRNE

WEATHER ROUNDUP FOR NEBRASKA
NATIONAL WEATHER SERVICE OMAHA NE
700 AM CST THU FEB 22 2018

NOTES: SATELLITE DATA IS BEING USED TO AUGMENT CLOUD COVER ABOVE
       12000 FEET.
       "FAIR" INDICATES FEW OR NO CLOUDS BELOW 12,000 FEET WITH NO
       SIGNIFICANT WEATHER AND/OR OBSTRUCTIONS TO VISIBILITY.


NEZ001>004-019>022-054>056-221400-
NEBRASKA PANHANDLE

CITY           SKY/WX    TMP DP  RH WIND       PRES   REMARKS
SCOTTSBLUFF    CLOUDY     8   5  87 E7        30.11S WCI  -3
ALLIANCE       CLOUDY     7   6  96 CALM      30.10F
CHADRON        MOCLDY    12   5  73 S12       30.13R WCI  -2
GORDON         PTSUNNY    3  -1  85 SW3       30.14F
KIMBALL        CLOUDY    13  11  92 NW3       30.04S
SIDNEY         LGT SNOW  18  12  77 S13       30.09S WCI   5
$$

NEZ057>060-069>072-079>082-221400-
SOUTHWEST NEBRASKA

CITY           SKY/WX    TMP DP  RH WIND       PRES   REMARKS
NORTH PLATTE   CLOUDY    20  15  81 SE10      30.22F WCI   9
IMPERIAL       FLURRIES  19  12  74 SE13      30.18R WCI   6
LEXINGTON      CLOUDY    22  16  79 SE9       30.25F WCI  12
MCCOOK         CLOUDY    22  12  65 SE12      30.24R WCI  10
OGALLALA       CLOUDY    21  13  72 SE6       30.19R WCI  14
$$

NEZ005>010-023>029-035>040-094-221400-
NORTH CENTRAL NEBRASKA

CITY           SKY/WX    TMP DP  RH WIND       PRES   REMARKS
VALENTINE      FAIR      13   9  84 E3        30.25S
AINSWORTH      CLOUDY    19  17  93 S12       30.25F WCI   6
BROKEN BOW     CLOUDY    20  16  84 SE9       30.26F WCI   9
O`NEILL        LGT SNOW  19  18  93 SE5       30.33S WCI  12
ORD            CLOUDY    20  17  88 SE6       30.30F WCI  12
THEDFORD         N/A     20  18  89 SE8       30.23S WCI  11
$$

NEZ041-046>049-061>064-073>077-083>087-221400-
SOUTH CENTRAL NEBRASKA

CITY           SKY/WX    TMP DP  RH WIND       PRES   REMARKS
GRAND ISLAND   CLOUDY    20  17  88 E9        30.35S WCI   9
AURORA         CLOUDY    20  17  89 E8        30.35F WCI  10
HASTINGS       CLOUDY    20  16  84 E9        30.32F WCI   9
HEBRON         CLOUDY    23  21  91 NE8       30.35F WCI  14
HOLDREGE       CLOUDY    20  18  90 E14       30.28S WCI   7
KEARNEY        CLOUDY    20  17  88 E13       30.29F WCI   7
YORK           FAIR      19  19 100 E9        30.38R WCI   9
$$

NEZ011>018-030>034-042>045-221400-
NORTHEAST NEBRASKA

CITY           SKY/WX    TMP DP  RH WIND       PRES   REMARKS
NORFOLK        CLOUDY    20  18  92 SE7       30.38R WCI  11
ALBION         CLOUDY    22  19  89 SE9       30.36S WCI  11
BLAIR          CLOUDY    22  20  93 NE7       30.40F WCI  14
COLUMBUS       CLOUDY    20  18  92 E9        30.40F WCI   9
FREMONT        CLOUDY    22  19  90 NE6       30.42F WCI  14
TEKAMAH        CLOUDY    21  18  88 NE5       30.44F WCI  15
WAYNE          CLOUDY    21  20  96 E6        30.41S WCI  13
$$

NEZ050>053-065>068-078-088>093-221400-
SOUTHEAST NEBRASKA

CITY           SKY/WX    TMP DP  RH WIND       PRES   REMARKS
LINCOLN        LGT SNOW  22  20  92 E6        30.42S FOG     WCI  14
OMAHA EPPLEY   LGT SNOW  23  19  85 E6        30.44S FOG     WCI  16
BEATRICE       FLURRIES  24  22  93 NE6       30.38F WCI  17
FALLS CITY     MIX PCPN  26  25  96 CALM      30.41F FOG
NEBRASKA CITY  LGT SNOW  23  23 100 E5        30.40F WCI  17
PLATTSMOUTH    LGT SNOW  23  22  95 E8        30.41S WCI  14
$$

NEZ044-045-051>053-067-221400-
OMAHA AREA

CITY           SKY/WX    TMP DP  RH WIND       PRES   REMARKS
OMAHA EPPLEY   LGT SNOW  23  19  85 E6        30.44S FOG     WCI  16
BLAIR          CLOUDY    22  20  93 NE7       30.40F WCI  14
FREMONT        CLOUDY    22  19  90 NE6       30.42F WCI  14
MILLARD        LGT SNOW  25  21  86 E3        30.43R
OFFUTT AFB     LGT SNOW N/A N/A N/A NE7       30.43F
PLATTSMOUTH    LGT SNOW  23  22  95 E8        30.41S WCI  14
WAHOO          FLURRIES  22  19  89 NE8       30.40F WCI  12
$$




USA.gov is the U.S. government's official web portal to all federal, state and local government web resources and services.